Weather in Timashevo

Russia / Samara Oblast     53°20′41″N   51°10′43″E
temp.,
°C
wind,
m/s
gust,
m/s
humid.,
%
clouds,
%
prec.,
mm/h
press.,
hPa
HPBL,
m
28 january, thu
thu2801:00−8sse61288100 0.0 1025326
04:00−9sse5129097 0.0 1024285
07:00−9sse6129199 0.0 1023321
10:00−8sse6129199 0.0 1022346
13:00−6sse61290100 0.0 1021434
16:00−6sse61289100 0.0 1020394
19:00−6se61289100 0.0 1019348
22:00−7se51190100 0.0 1018332
29 january, fri
fri2901:00−7se51091100 0.0 1017275
04:00−6se51090100 0.0 1016339
07:00−6se51191100 0.0 1015335
10:00−6se51191100 0.0 1014370
13:00−3se5994100 0.1 1013442
16:00−3sse4896100 1.6 1012458
19:00−3se4897100 1.3 1011359
22:00−3sse4897100 2.2 1009320
30 january, sat
sat3001:00−2s4797100 1.4 1009269
04:00−5ssw469795 1.6 1010121
07:00−6s349598 0.0 101041
10:00−7sse469466 0.0 1011122
13:00−3s6128999 0.0 1011380
16:000s7148799 0.0 1010605
19:00−1ssw81489100 0.0 1011738
22:00−1ssw7139399 0.1 1012521
31 january, sun
sun3101:000ssw71298100 0.6 1013552
04:000ssw51094100 0.8 1014400
07:00−2s61094100 0.1 1013335
10:00−4sse61289100 0.1 1014290
13:00−3sse61385100 0.0 1015373
16:00−4sse71483100 0.0 1012430
19:00−3sse91884100 0.0 1009487
22:00−2s111895100 0.0 1006760
1 february, mon
mon101:00+1ssw111998100 1.1 1005874
04:000sw91583100 1.8 1007881
07:00−5sw61489100 0.0 1011522
10:00−6sw5129181 0.0 1014408
13:00−6sw5109174 0.0 1018460
16:00−7sw479485 0.0 1020175
19:00−10ssw349489 0.0 102245
22:00−10sse349395 0.0 102354